| time (UTC) | temp F | wind direction | speed MPH | gust MPH | rain 1hr in | rain 24hr in | rain mn in | humidity % | barometer mb |
| 20260503054855 | 72 | 258 | 0.0 | 0.0 | 0.00 | 0.00 | 0.00 | 33 | |
| 20260503054355 | 72 | 328 | 0.0 | 7.0 | 0.00 | 0.00 | 0.00 | 32 | |
| 20260503053855 | 73 | 39 | 2.0 | 7.0 | 0.00 | 0.00 | 0.00 | 32 | |
| 20260503053355 | 73 | 27 | 0.0 | 7.0 | 0.00 | 0.00 | 0.00 | 32 | |
| 20260503052855 | 72 | 223 | 2.0 | 7.0 | 0.00 | 0.00 | 0.00 | 33 | |
| 20260503052355 | 72 | 269 | 2.0 | 5.0 | 0.00 | 0.00 | 0.00 | 33 | |
| 20260503051855 | 72 | 214 | 1.0 | 3.0 | 0.00 | 0.00 | 0.00 | 33 | |
| 20260503051355 | 72 | 10 | 0.0 | 0.0 | 0.00 | 0.00 | 0.00 | 32 | |
| 20260503050855 | 72 | 276 | 0.0 | 3.0 | 0.00 | 0.00 | 0.00 | 33 | |
| 20260503050355 | 72 | 241 | 0.0 | 5.0 | 0.00 | 0.00 | 0.00 | 33 | |
| 20260503045855 | 72 | 310 | 0.0 | 5.0 | 0.00 | 0.00 | 0.00 | 32 | |
| 20260503045355 | 72 | 324 | 0.0 | 3.0 | 0.00 | 0.00 | 0.00 | 32 | |
| 20260503044855 | 73 | 330 | 0.0 | 3.0 | 0.00 | 0.00 | 0.00 | 33 | |
| 20260503044355 | 73 | 173 | 0.0 | 4.0 | 0.00 | 0.00 | 0.00 | 33 | |
| 20260503043855 | 74 | 82 | 0.0 | 5.0 | 0.00 | 0.00 | 0.00 | 33 | |
| 20260503043355 | 74 | 65 | 1.0 | 5.0 | 0.00 | 0.00 | 0.00 | 33 | |
| 20260503042855 | 74 | 50 | 2.0 | 7.0 | 0.00 | 0.00 | 0.00 | 33 | |
| 20260503042355 | 74 | 48 | 4.0 | 7.0 | 0.00 | 0.00 | 0.00 | 32 | |
| 20260503041855 | 74 | 37 | 3.0 | 6.0 | 0.00 | 0.00 | 0.00 | 32 | |
| 20260503041355 | 74 | 41 | 0.0 | 9.0 | 0.00 | 0.00 | 0.00 | 32 | |
| 20260503040855 | 74 | 52 | 3.0 | 9.0 | 0.00 | 0.00 | 0.00 | 32 | |
| 20260503040356 | 74 | 48 | 5.0 | 9.0 | 0.00 | 0.00 | 0.00 | 32 | |
| 20260503035855 | 74 | 145 | 1.0 | 6.0 | 0.00 | 0.00 | 0.00 | 33 | |
| 20260503035355 | 74 | 75 | 1.0 | 5.0 | 0.00 | 0.00 | 0.00 | 33 | |
| 20260503035345 | 75 | 54 | 2.0 | 12.0 | 0.00 | 0.00 | 0.00 | 32 | |
| 20260503034855 | 75 | 54 | 2.0 | 12.0 | 0.00 | 0.00 | 0.00 | 32 | |
| 20260503034355 | 75 | 42 | 7.0 | 12.0 | 0.00 | 0.00 | 0.00 | 32 | |
| 20260503033855 | 75 | 46 | 8.0 | 11.0 | 0.00 | 0.00 | 0.00 | 32 | |
| 20260503033356 | 75 | 39 | 4.0 | 9.0 | 0.00 | 0.00 | 0.00 | 32 | |
| 20260503033214 | 75 | 43 | 6.0 | 12.0 | 0.00 | 0.00 | 0.00 | 32 | |
| 20260503032855 | 75 | 43 | 6.0 | 12.0 | 0.00 | 0.00 | 0.00 | 32 | |
| 20260503032637 | 75 | 43 | 8.0 | 12.0 | 0.00 | 0.00 | 0.00 | 32 | |
| 20260503032355 | 75 | 43 | 8.0 | 12.0 | 0.00 | 0.00 | 0.00 | 32 | |
| 20260503032113 | 75 | 40 | 7.0 | 10.0 | 0.00 | 0.00 | 0.00 | 32 | |
| 20260503031855 | 75 | 40 | 7.0 | 10.0 | 0.00 | 0.00 | 0.00 | 32 | |
| 20260503031355 | 75 | 44 | 6.0 | 10.0 | 0.00 | 0.00 | 0.00 | 31 | |
| 20260503030855 | 75 | 32 | 7.0 | 11.0 | 0.00 | 0.00 | 0.00 | 31 | |
| 20260503030355 | 74 | 39 | 7.0 | 11.0 | 0.00 | 0.00 | 0.00 | 31 | |
| 20260503025855 | 74 | 39 | 4.0 | 7.0 | 0.00 | 0.00 | 0.00 | 30 | |
| 20260503025355 | 75 | 52 | 2.0 | 6.0 | 0.00 | 0.00 | 0.00 | 30 | |
| 20260503024855 | 75 | 45 | 3.0 | 6.0 | 0.00 | 0.00 | 0.00 | 30 | |
| 20260503024355 | 76 | 46 | 3.0 | 7.0 | 0.00 | 0.00 | 0.00 | 30 | |
| 20260503023855 | 77 | 62 | 3.0 | 9.0 | 0.00 | 0.00 | 0.00 | 31 | |
| 20260503023433 | 77 | 76 | 5.0 | 9.0 | 0.00 | 0.00 | 0.00 | 31 | |
| 20260503023355 | 77 | 76 | 5.0 | 9.0 | 0.00 | 0.00 | 0.00 | 31 | |
| 20260503023219 | 77 | 98 | 5.0 | 9.0 | 0.00 | 0.00 | 0.00 | 30 | |
| 20260503022855 | 77 | 98 | 5.0 | 9.0 | 0.00 | 0.00 | 0.00 | 30 | |
| 20260503022355 | 77 | 102 | 4.0 | 8.0 | 0.00 | 0.00 | 0.00 | 30 | |
| 20260503021855 | 78 | 97 | 4.0 | 8.0 | 0.00 | 0.00 | 0.00 | 29 | |
| 20260503021355 | 78 | 96 | 5.0 | 8.0 | 0.00 | 0.00 | 0.00 | 29 | |
| 20260503020855 | 78 | 83 | 3.0 | 8.0 | 0.00 | 0.00 | 0.00 | 28 | |
| 20260503020355 | 79 | 76 | 3.0 | 8.0 | 0.00 | 0.00 | 0.00 | 28 | |
| 20260503015855 | 80 | 84 | 3.0 | 8.0 | 0.00 | 0.00 | 0.00 | 27 | |
| 20260503015651 | 80 | 87 | 4.0 | 8.0 | 0.00 | 0.00 | 0.00 | 27 | |
| 20260503015355 | 80 | 87 | 4.0 | 8.0 | 0.00 | 0.00 | 0.00 | 27 | |
| 20260503014856 | 79 | 80 | 3.0 | 8.0 | 0.00 | 0.00 | 0.00 | 26 | |
| 20260503014357 | 80 | 154 | 1.0 | 3.0 | 0.00 | 0.00 | 0.00 | 26 | |
| 20260503013856 | 80 | 16 | 0.0 | 4.0 | 0.00 | 0.00 | 0.00 | 25 | |
| 20260503013355 | 80 | 61 | 3.0 | 5.0 | 0.00 | 0.00 | 0.00 | 25 | |
| 20260503012855 | 81 | 67 | 3.0 | 5.0 | 0.00 | 0.00 | 0.00 | 25 | |
| 20260503012355 | 81 | 56 | 3.0 | 5.0 | 0.00 | 0.00 | 0.00 | 25 | |
| 20260503011855 | 81 | 53 | 2.0 | 5.0 | 0.00 | 0.00 | 0.00 | 25 | |
| 20260503011355 | 82 | 40 | 2.0 | 4.0 | 0.00 | 0.00 | 0.00 | 25 | |
| 20260503010855 | 83 | 45 | 1.0 | 8.0 | 0.00 | 0.00 | 0.00 | 25 | |
| 20260503010355 | 83 | 58 | 3.0 | 8.0 | 0.00 | 0.00 | 0.00 | 24 | |
| 20260503005855 | 83 | 47 | 3.0 | 8.0 | 0.00 | 0.00 | 0.00 | 25 | |
| 20260503005356 | 83 | 53 | 3.0 | 6.0 | 0.00 | 0.00 | 0.00 | 24 | |
| 20260503004855 | 83 | 45 | 1.0 | 5.0 | 0.00 | 0.00 | 0.00 | 24 | |
| 20260503004355 | 83 | 34 | 2.0 | 5.0 | 0.00 | 0.00 | 0.00 | 24 | |
| 20260503003856 | 83 | 39 | 1.0 | 4.0 | 0.00 | 0.00 | 0.00 | 24 | |
| 20260503003355 | 83 | 23 | 2.0 | 5.0 | 0.00 | 0.00 | 0.00 | 25 | |
| 20260503002855 | 83 | 70 | 2.0 | 5.0 | 0.00 | 0.00 | 0.00 | 24 | |
| 20260503002355 | 84 | 110 | 4.0 | 5.0 | 0.00 | 0.00 | 0.00 | 24 | |
| 20260503001855 | 84 | 146 | 2.0 | 5.0 | 0.00 | 0.00 | 0.00 | 26 | |
| 20260503001355 | 84 | 45 | 1.0 | 4.0 | 0.00 | 0.00 | 0.00 | 27 | |
| 20260503000855 | 84 | 93 | 2.0 | 5.0 | 0.00 | 0.00 | 0.00 | 26 | |
| 20260503000355 | 84 | 87 | 2.0 | 8.0 | 0.00 | 0.00 | 0.00 | 25 | |
| 20260502235855 | 85 | 106 | 4.0 | 8.0 | 0.00 | 0.00 | 0.00 | 25 | |
| 20260502235355 | 85 | 126 | 3.0 | 9.0 | 0.00 | 0.00 | 0.00 | 26 | |
| 20260502234855 | 86 | 218 | 4.0 | 9.0 | 0.00 | 0.00 | 0.00 | 30 | |
| 20260502234355 | 88 | 130 | 3.0 | 7.0 | 0.00 | 0.00 | 0.00 | 25 | |
| 20260502233856 | 89 | 142 | 3.0 | 7.0 | 0.00 | 0.00 | 0.00 | 26 | |
| 20260502233355 | 91 | 198 | 3.0 | 10.0 | 0.00 | 0.00 | 0.00 | 29 | |
| 20260502232855 | 91 | 191 | 5.0 | 10.0 | 0.00 | 0.00 | 0.00 | 28 | |
| 20260502232355 | 90 | 193 | 5.0 | 9.0 | 0.00 | 0.00 | 0.00 | 28 | |
| 20260502231855 | 89 | 176 | 4.0 | 8.0 | 0.00 | 0.00 | 0.00 | 26 | |
| 20260502231355 | 90 | 124 | 3.0 | 8.0 | 0.00 | 0.00 | 0.00 | 25 | |
| 20260502230855 | 91 | 184 | 3.0 | 8.0 | 0.00 | 0.00 | 0.00 | 29 | |
| 20260502230715 | 91 | 224 | 4.0 | 8.0 | 0.00 | 0.00 | 0.00 | 27 | |
| 20260502230355 | 91 | 224 | 4.0 | 8.0 | 0.00 | 0.00 | 0.00 | 27 | |
| 20260502225855 | 93 | 168 | 4.0 | 6.0 | 0.00 | 0.00 | 0.00 | 26 | |
| 20260502225355 | 94 | 94 | 2.0 | 8.0 | 0.00 | 0.00 | 0.00 | 24 | |
| 20260502224855 | 94 | 94 | 3.0 | 8.0 | 0.00 | 0.00 | 0.00 | 25 | |
| 20260502224355 | 93 | 183 | 4.0 | 22.0 | 0.00 | 0.00 | 0.00 | 28 | |
| 20260502223855 | 93 | 263 | 10.0 | 22.0 | 0.00 | 0.00 | 0.00 | 27 | |
| 20260502223356 | 94 | 27 | 5.0 | 11.0 | 0.00 | 0.00 | 0.00 | 25 | |
| 20260502222855 | 94 | 74 | 4.0 | 9.0 | 0.00 | 0.00 | 0.00 | 24 | |
| 20260502222355 | 95 | 53 | 5.0 | 8.0 | 0.00 | 0.00 | 0.00 | 25 | |
| 20260502221855 | 97 | 17 | 3.0 | 6.0 | 0.00 | 0.00 | 0.00 | 26 | |
| 20260502221355 | 97 | 273 | 3.0 | 6.0 | 0.00 | 0.00 | 0.00 | 28 | |
| 20260502220855 | 97 | 47 | 3.0 | 8.0 | 0.00 | 0.00 | 0.00 | 25 | |
| 20260502220355 | 96 | 18 | 4.0 | 8.0 | 0.00 | 0.00 | 0.00 | 28 | |
| 20260502215855 | 94 | 169 | 2.0 | 7.0 | 0.00 | 0.00 | 0.00 | 26 | |
| 20260502215504 | 94 | 185 | 3.0 | 9.0 | 0.00 | 0.00 | 0.00 | 26 | |
| 20260502215355 | 94 | 185 | 3.0 | 9.0 | 0.00 | 0.00 | 0.00 | 26 | |
| 20260502214856 | 93 | 215 | 5.0 | 10.0 | 0.00 | 0.00 | 0.00 | 30 | |
| 20260502214355 | 94 | 184 | 5.0 | 12.0 | 0.00 | 0.00 | 0.00 | 26 | |
| 20260502213355 | 93 | 130 | 3.0 | 10.0 | 0.00 | 0.00 | 0.00 | 27 | |
| 20260502212855 | 92 | 352 | 2.0 | 10.0 | 0.00 | 0.00 | 0.00 | 28 | |
| 20260502212355 | 92 | 44 | 5.0 | 10.0 | 0.00 | 0.00 | 0.00 | 26 | |
| 20260502211855 | 92 | 42 | 4.0 | 10.0 | 0.00 | 0.00 | 0.00 | 28 | |
| 20260502211355 | 91 | 54 | 3.0 | 6.0 | 0.00 | 0.00 | 0.00 | 25 | |
| 20260502210856 | 90 | 13 | 2.0 | 8.0 | 0.00 | 0.00 | 0.00 | 28 | |
| 20260502210355 | 92 | 264 | 3.0 | 9.0 | 0.00 | 0.00 | 0.00 | 33 | |
| 20260502205856 | 92 | 218 | 5.0 | 11.0 | 0.00 | 0.00 | 0.00 | 33 | |
| 20260502205453 | 93 | 224 | 7.0 | 11.0 | 0.00 | 0.00 | 0.00 | 32 | |
| 20260502205355 | 93 | 224 | 7.0 | 11.0 | 0.00 | 0.00 | 0.00 | 32 | |
| 20260502204355 | 92 | 104 | 3.0 | 7.0 | 0.00 | 0.00 | 0.00 | 24 | |
| 20260502203855 | 92 | 100 | 3.0 | 8.0 | 0.00 | 0.00 | 0.00 | 25 | |
| 20260502203356 | 92 | 194 | 4.0 | 9.0 | 0.00 | 0.00 | 0.00 | 30 | |
| 20260502203316 | 92 | 244 | 4.0 | 9.0 | 0.00 | 0.00 | 0.00 | 28 | |
| 20260502202855 | 92 | 244 | 4.0 | 9.0 | 0.00 | 0.00 | 0.00 | 28 | |
| 20260502202355 | 91 | 85 | 4.0 | 11.0 | 0.00 | 0.00 | 0.00 | 28 | |
| 20260502201855 | 91 | 175 | 6.0 | 11.0 | 0.00 | 0.00 | 0.00 | 29 | |
| 20260502201355 | 92 | 261 | 4.0 | 12.0 | 0.00 | 0.00 | 0.00 | 33 | |
| 20260502200855 | 92 | 254 | 6.0 | 12.0 | 0.00 | 0.00 | 0.00 | 33 | |
| 20260502200357 | 92 | 244 | 6.0 | 11.0 | 0.00 | 0.00 | 0.00 | 34 | |
| 20260502195855 | 90 | 226 | 4.0 | 12.0 | 0.00 | 0.00 | 0.00 | 33 | |
| 20260502195738 | 89 | 220 | 8.0 | 12.0 | 0.00 | 0.00 | 0.00 | 33 | |
| 20260502195356 | 89 | 220 | 8.0 | 12.0 | 0.00 | 0.00 | 0.00 | 33 | |
| 20260502194855 | 89 | 171 | 7.0 | 15.0 | 0.00 | 0.00 | 0.00 | 30 | |
| 20260502194355 | 89 | 282 | 7.0 | 15.0 | 0.00 | 0.00 | 0.00 | 32 | |
| 20260502193855 | 89 | 135 | 3.0 | 10.0 | 0.00 | 0.00 | 0.00 | 28 | |
| 20260502193355 | 87 | 153 | 6.0 | 12.0 | 0.00 | 0.00 | 0.00 | 32 | |
| 20260502192855 | 86 | 203 | 7.0 | 12.0 | 0.00 | 0.00 | 0.00 | 34 | |
| 20260502192355 | 84 | 217 | 6.0 | 12.0 | 0.00 | 0.00 | 0.00 | 33 | |
| 20260502191855 | 83 | 34 | 1.0 | 6.0 | 0.00 | 0.00 | 0.00 | 32 | |
| 20260502191355 | 83 | 192 | 3.0 | 9.0 | 0.00 | 0.00 | 0.00 | 32 | |
| 20260502190855 | 83 | 202 | 5.0 | 9.0 | 0.00 | 0.00 | 0.00 | 33 | |
| 20260502190355 | 84 | 215 | 3.0 | 8.0 | 0.00 | 0.00 | 0.00 | 33 | |
| 20260502185856 | 85 | 177 | 3.0 | 8.0 | 0.00 | 0.00 | 0.00 | 33 | |
| 20260502185355 | 87 | 174 | 4.0 | 8.0 | 0.00 | 0.00 | 0.00 | 31 | |
| 20260502185105 | 87 | 81 | 3.0 | 8.0 | 0.00 | 0.00 | 0.00 | 29 | |
| 20260502184857 | 87 | 81 | 3.0 | 8.0 | 0.00 | 0.00 | 0.00 | 29 | |
| 20260502184355 | 87 | 110 | 5.0 | 12.0 | 0.00 | 0.00 | 0.00 | 30 | |
| 20260502183855 | 87 | 144 | 5.0 | 13.0 | 0.00 | 0.00 | 0.00 | 33 | |
| 20260502183355 | 88 | 201 | 9.0 | 13.0 | 0.00 | 0.00 | 0.00 | 34 | |
| 20260502182855 | 90 | 250 | 5.0 | 10.0 | 0.00 | 0.00 | 0.00 | 33 | |
| 20260502182356 | 89 | 281 | 2.0 | 5.0 | 0.00 | 0.00 | 0.00 | 33 | |
| 20260502181855 | 88 | 190 | 2.0 | 8.0 | 0.00 | 0.00 | 0.00 | 33 | |
| 20260502181355 | 87 | 177 | 2.0 | 8.0 | 0.00 | 0.00 | 0.00 | 33 | |
| 20260502180855 | 86 | 260 | 2.0 | 8.0 | 0.00 | 0.00 | 0.00 | 32 | |
| 20260502180355 | 86 | 126 | 4.0 | 8.0 | 0.00 | 0.00 | 0.00 | 32 | |
| 20260502170355 | 83 | 36 | 5.0 | 13.0 | 0.00 | 0.00 | 0.00 | 33 | |
| 20260502170213 | 83 | 39 | 7.0 | 12.0 | 0.00 | 0.00 | 0.00 | 33 | |
| 20260502164248 | 82 | 4 | 3.0 | 10.0 | 0.00 | 0.00 | 0.00 | 31 | |
| 20260502163855 | 82 | 4 | 3.0 | 10.0 | 0.00 | 0.00 | 0.00 | 31 | |
| 20260502163727 | 83 | 92 | 6.0 | 11.0 | 0.00 | 0.00 | 0.00 | 32 | |
| 20260502163355 | 83 | 92 | 6.0 | 11.0 | 0.00 | 0.00 | 0.00 | 32 | |
| 20260502163238 | 83 | 44 | 7.0 | 11.0 | 0.00 | 0.00 | 0.00 | 33 | |
| 20260502162855 | 83 | 44 | 7.0 | 11.0 | 0.00 | 0.00 | 0.00 | 33 | |
| 20260502162740 | 83 | 43 | 5.0 | 9.0 | 0.00 | 0.00 | 0.00 | 33 | |
| 20260502162355 | 83 | 43 | 5.0 | 9.0 | 0.00 | 0.00 | 0.00 | 33 | |
| 20260502162215 | 83 | 26 | 2.0 | 6.0 | 0.00 | 0.00 | 0.00 | 34 | |
| 20260502161855 | 83 | 26 | 2.0 | 6.0 | 0.00 | 0.00 | 0.00 | 34 | |
| 20260502161712 | 81 | 43 | 1.0 | 7.0 | 0.00 | 0.00 | 0.00 | 33 | |
| 20260502161355 | 81 | 43 | 1.0 | 7.0 | 0.00 | 0.00 | 0.00 | 33 | |
| 20260502161151 | 80 | 100 | 3.0 | 7.0 | 0.00 | 0.00 | 0.00 | 34 | |
| 20260502160856 | 80 | 100 | 3.0 | 7.0 | 0.00 | 0.00 | 0.00 | 34 | |
| 20260502160745 | 80 | 352 | 1.0 | 11.0 | 0.00 | 0.00 | 0.00 | 33 | |
| 20260502160355 | 80 | 352 | 1.0 | 11.0 | 0.00 | 0.00 | 0.00 | 33 | |
| 20260502160220 | 79 | 359 | 4.0 | 12.0 | 0.00 | 0.00 | 0.00 | 33 | |
| 20260502152221 | 76 | 45 | 7.0 | 13.0 | 0.00 | 0.00 | 0.00 | 33 | |
| 20260502151855 | 76 | 45 | 7.0 | 13.0 | 0.00 | 0.00 | 0.00 | 33 | |
| 20260502151736 | 76 | 54 | 6.0 | 13.0 | 0.00 | 0.00 | 0.00 | 33 | |
| 20260502151436 | 76 | 63 | 5.0 | 13.0 | 0.00 | 0.00 | 0.00 | 34 | |
| 20260502151355 | 76 | 54 | 6.0 | 13.0 | 0.00 | 0.00 | 0.00 | 33 | |
| 20260502150855 | 76 | 63 | 5.0 | 13.0 | 0.00 | 0.00 | 0.00 | 34 | |
| 20260502150753 | 75 | 54 | 8.0 | 13.0 | 0.00 | 0.00 | 0.00 | 34 | |
| 20260502150356 | 75 | 54 | 8.0 | 13.0 | 0.00 | 0.00 | 0.00 | 34 | |
| 20260502150158 | 75 | 81 | 5.0 | 14.0 | 0.00 | 0.00 | 0.00 | 34 | |
| 20260502130440 | 64 | 42 | 3.0 | 10.0 | 0.00 | 0.00 | 0.00 | 34 | |
| 20260502130355 | 64 | 52 | 2.0 | 8.0 | 0.00 | 0.00 | 0.00 | 34 | |
| 20260502123429 | 62 | 53 | 3.0 | 10.0 | 0.00 | 0.00 | 0.00 | 34 | |
| 20260502123355 | 63 | 56 | 4.0 | 10.0 | 0.00 | 0.00 | 0.00 | 34 | |
| 20260502123103 | 63 | 53 | 2.0 | 10.0 | 0.00 | 0.00 | 0.00 | 34 | |
| 20260502123021 | 63 | 53 | 2.0 | 10.0 | 0.00 | 0.00 | 0.00 | 34 | |
| 20260502122855 | 62 | 53 | 3.0 | 10.0 | 0.00 | 0.00 | 0.00 | 34 | |
| 20260502122406 | 63 | 46 | 3.0 | 11.0 | 0.00 | 0.00 | 0.00 | 34 | |
| 20260502122355 | 63 | 53 | 2.0 | 10.0 | 0.00 | 0.00 | 0.00 | 34 | |
| 20260502121855 | 63 | 46 | 3.0 | 11.0 | 0.00 | 0.00 | 0.00 | 34 | |
| 20260502121824 | 63 | 46 | 5.0 | 11.0 | 0.00 | 0.00 | 0.00 | 34 | |
| 20260502121429 | 63 | 44 | 6.0 | 11.0 | 0.00 | 0.00 | 0.00 | 34 | |
| 20260502121356 | 63 | 46 | 5.0 | 11.0 | 0.00 | 0.00 | 0.00 | 34 | |
| 20260502121007 | 63 | 44 | 5.0 | 9.0 | 0.00 | 0.00 | 0.00 | 34 | |
| 20260502120913 | 63 | 44 | 5.0 | 9.0 | 0.00 | 0.00 | 0.00 | 34 | |
| 20260502120856 | 63 | 44 | 6.0 | 11.0 | 0.00 | 0.00 | 0.00 | 34 | |
| 20260502120440 | 63 | 42 | 5.0 | 9.0 | 0.00 | 0.00 | 0.00 | 33 | |
| 20260502120355 | 63 | 44 | 5.0 | 9.0 | 0.00 | 0.00 | 0.00 | 34 | |
| 20260502115855 | 63 | 42 | 5.0 | 9.0 | 0.00 | 0.00 | 0.00 | 33 | |
| 20260502115504 | 63 | 45 | 5.0 | 8.0 | 0.00 | 0.00 | 0.00 | 32 | |
| 20260502115427 | 63 | 45 | 5.0 | 8.0 | 0.00 | 0.00 | 0.00 | 32 | |
| 20260502115355 | 63 | 37 | 4.0 | 8.0 | 0.00 | 0.00 | 0.00 | 33 | |
| 20260502114855 | 63 | 45 | 5.0 | 8.0 | 0.00 | 0.00 | 0.00 | 32 | |
| 20260502114759 | 63 | 45 | 5.0 | 8.0 | 0.00 | 0.00 | 0.00 | 33 | |
| 20260502114355 | 63 | 45 | 5.0 | 8.0 | 0.00 | 0.00 | 0.00 | 33 | |
| 20260502114255 | 63 | 40 | 5.0 | 9.0 | 0.00 | 0.00 | 0.00 | 33 | |
| 20260502113856 | 62 | 38 | 6.0 | 9.0 | 0.00 | 0.00 | 0.00 | 32 | |
| 20260502113356 | 62 | 47 | 0.0 | 0.0 | 0.00 | 0.00 | 0.00 | 31 | |
| 20260502112918 | 62 | 46 | 0.0 | 6.0 | 0.00 | 0.00 | 0.00 | 31 | |
| 20260502112855 | 62 | 47 | 0.0 | 0.0 | 0.00 | 0.00 | 0.00 | 31 | |
| 20260502112515 | 61 | 49 | 2.0 | 6.0 | 0.00 | 0.00 | 0.00 | 28 | |
| 20260502112355 | 62 | 46 | 0.0 | 6.0 | 0.00 | 0.00 | 0.00 | 31 | |
| 20260502112032 | 61 | 45 | 0.0 | 6.0 | 0.00 | 0.00 | 0.00 | 26 | |
| 20260502111855 | 61 | 49 | 2.0 | 6.0 | 0.00 | 0.00 | 0.00 | 28 | |
| 20260502111559 | 61 | 34 | 0.0 | 0.0 | 0.00 | 0.00 | 0.00 | 28 | |
| 20260502111508 | 61 | 34 | 0.0 | 0.0 | 0.00 | 0.00 | 0.00 | 28 | |
| 20260502111356 | 61 | 45 | 0.0 | 6.0 | 0.00 | 0.00 | 0.00 | 26 | |
| 20260502110856 | 61 | 34 | 0.0 | 0.0 | 0.00 | 0.00 | 0.00 | 28 | |
| 20260502110819 | 61 | 357 | 0.0 | 0.0 | 0.00 | 0.00 | 0.00 | 28 | |
| 20260502110356 | 61 | 357 | 0.0 | 0.0 | 0.00 | 0.00 | 0.00 | 28 | |
| 20260502110256 | 62 | 63 | 0.0 | 0.0 | 0.00 | 0.00 | 0.00 | 29 | |
| 20260502110010 | 63 | 138 | 0.0 | 0.0 | 0.00 | 0.00 | 0.00 | 33 | |
| 20260502105855 | 62 | 63 | 0.0 | 0.0 | 0.00 | 0.00 | 0.00 | 29 | |
| 20260502105409 | 62 | 133 | 0.0 | 0.0 | 0.00 | 0.00 | 0.00 | 33 | |
| 20260502105355 | 63 | 138 | 0.0 | 0.0 | 0.00 | 0.00 | 0.00 | 33 | |
| 20260502104855 | 62 | 133 | 0.0 | 0.0 | 0.00 | 0.00 | 0.00 | 33 | |
| 20260502104747 | 62 | 126 | 0.0 | 4.0 | 0.00 | 0.00 | 0.00 | 33 | |
| 20260502104422 | 62 | 107 | 0.0 | 4.0 | 0.00 | 0.00 | 0.00 | 33 | |
| 20260502104356 | 62 | 126 | 0.0 | 4.0 | 0.00 | 0.00 | 0.00 | 33 | |
| 20260502103856 | 62 | 107 | 0.0 | 4.0 | 0.00 | 0.00 | 0.00 | 33 | |
| 20260502103817 | 62 | 96 | 0.0 | 4.0 | 0.00 | 0.00 | 0.00 | 32 | |
| 20260502103356 | 62 | 96 | 0.0 | 4.0 | 0.00 | 0.00 | 0.00 | 32 | |
| 20260502103346 | 61 | 81 | 0.0 | 4.0 | 0.00 | 0.00 | 0.00 | 31 | |
| 20260502102855 | 61 | 81 | 0.0 | 4.0 | 0.00 | 0.00 | 0.00 | 31 | |
| 20260502102818 | 61 | 98 | 0.0 | 1.0 | 0.00 | 0.00 | 0.00 | 31 | |
| 20260502102423 | 61 | 112 | 0.0 | 0.0 | 0.00 | 0.00 | 0.00 | 33 | |
| 20260502102355 | 61 | 98 | 0.0 | 1.0 | 0.00 | 0.00 | 0.00 | 31 | |
| 20260502101855 | 61 | 112 | 0.0 | 0.0 | 0.00 | 0.00 | 0.00 | 33 | |
| 20260502101827 | 61 | 115 | 0.0 | 0.0 | 0.00 | 0.00 | 0.00 | 34 | |
| 20260502101421 | 62 | 129 | 0.0 | 4.0 | 0.00 | 0.00 | 0.00 | 34 | |
| 20260502101357 | 61 | 115 | 0.0 | 0.0 | 0.00 | 0.00 | 0.00 | 34 | |
| 20260502100856 | 62 | 129 | 0.0 | 4.0 | 0.00 | 0.00 | 0.00 | 34 | |
| 20260502100749 | 62 | 126 | 0.0 | 4.0 | 0.00 | 0.00 | 0.00 | 34 | |
| 20260502100356 | 62 | 126 | 0.0 | 4.0 | 0.00 | 0.00 | 0.00 | 34 | |
| 20260502091418 | 63 | 88 | 0.0 | 0.0 | 0.00 | 0.00 | 0.00 | 29 | |
| 20260502091356 | 63 | 38 | 0.0 | 0.0 | 0.00 | 0.00 | 0.00 | 28 | |
| 20260502090856 | 63 | 88 | 0.0 | 0.0 | 0.00 | 0.00 | 0.00 | 29 | |
| 20260502090853 | 63 | 92 | 0.0 | 0.0 | 0.00 | 0.00 | 0.00 | 29 | |
| 20260502090356 | 63 | 92 | 0.0 | 0.0 | 0.00 | 0.00 | 0.00 | 29 | |
| 20260502090252 | 63 | 111 | 0.0 | 0.0 | 0.00 | 0.00 | 0.00 | 31 | |
| 20260502071506 | 64 | 187 | 1.0 | 4.0 | 0.00 | 0.00 | 0.00 | 33 | |
| 20260502071412 | 64 | 187 | 1.0 | 4.0 | 0.00 | 0.00 | 0.00 | 33 | |
| 20260502071356 | 64 | 184 | 2.0 | 5.0 | 0.00 | 0.00 | 0.00 | 32 | |
| 20260502070954 | 64 | 151 | 0.0 | 0.0 | 0.00 | 0.00 | 0.00 | 32 | |
| 20260502070856 | 64 | 187 | 1.0 | 4.0 | 0.00 | 0.00 | 0.00 | 33 | |
| 20260502070412 | 65 | 131 | 0.0 | 4.0 | 0.00 | 0.00 | 0.00 | 32 | |
| 20260502070356 | 64 | 151 | 0.0 | 0.0 | 0.00 | 0.00 | 0.00 | 32 | |
| 20260502070044 | 65 | 115 | 0.0 | 4.0 | 0.00 | 0.00 | 0.00 | 32 | |
| 20260502065856 | 65 | 131 | 0.0 | 4.0 | 0.00 | 0.00 | 0.00 | 32 | |
| 20260502065544 | 65 | 99 | 0.0 | 3.0 | 0.00 | 0.00 | 0.00 | 31 | |
| 20260502065513 | 65 | 99 | 0.0 | 3.0 | 0.00 | 0.00 | 0.00 | 31 | |
| 20260502065356 | 65 | 115 | 0.0 | 4.0 | 0.00 | 0.00 | 0.00 | 32 | |
| 20260502064914 | 65 | 78 | 0.0 | 4.0 | 0.00 | 0.00 | 0.00 | 28 | |
| 20260502064856 | 65 | 99 | 0.0 | 3.0 | 0.00 | 0.00 | 0.00 | 31 |